FALCON 9 DEB (46731 NORAD) Tracking and Keplerian Element Data

This shows tracking and keplerian element data for the satellite.

Feedback or suggestion? Click here.




ElementValue
Catalog46731
NameFALCON 9 DEB
Epoch Orbit461
Epoch Day321.16554828
Epoch Year2020
RAAN320.4813
Inclination53.0413
Eccentricity9.72E-05
Argument of Perigee281.8917
Mean Anonmoly78.2024
Mean Motion16.47066441
Decay Rate0.11044325
L11 46731U 20073BP 20321.16554828 .11044325 12561-4 22913-3 0 9999
L22 46731 53.0413 320.4813 0000972 281.8917 78.2024 16.47066441 4617

Live tracking and technical data element details for FALCON 9 DEB (NORAD 46731). FALCON 9 DEB can be tracked NOW for your location showing map with azimuth and elevation plus other details from your city location.

Track the satellite on the map from your city or location and see movement details for azimuth, elevation, latitude, longitude, range, height, and movement on the map or in text.







IsCatalogInMostPopularTable: catalog: 46731, numindb: 7
Update: records affected: 1



GetName: 46731 FALCON 9 DEB

Hit Count: updated at: Thu, 26 Nov 2020 17:33:36 GMT